• In France
  • List of Countries
  • For 7 days
  • Water Temperature
  • Satellite Maps
  • Weather Map
  • Weather Widgets
  • user-avatar
    Login

    Hourly Weather Saurimo

    Today, 22 September, Saturday

    Time Temperature Precipitation Wind Pressure Humidity
    00:00 +24°C° 0 mm 0 mps 669 mmHg 33%
    01:00 +23°C° 0 mm 0 mps 669 mmHg 34%
    02:00 +25°C° 0 mm 1 mps 669 mmHg 35%
    03:00 +24°C° 0 mm 1 mps 668 mmHg 37%
    04:00 +23°C° 0 mm 1 mps 668 mmHg 39%
    05:00 +25°C° 0 mm 1 mps 669 mmHg 39%
    06:00 +26°C° 0 mm 1 mps 670 mmHg 40%
    07:00 +27°C° 0 mm 2 mps 671 mmHg 44%
    08:00 +30°C° 0 mm 2 mps 671 mmHg 38%
    09:00 +34°C° 0 mm 2 mps 672 mmHg 32%
    10:00 +37°C° 0 mm 2 mps 672 mmHg 25%
    11:00 +36°C° 0 mm 2 mps 671 mmHg 24%
    12:00 +36°C° 0 mm 2 mps 671 mmHg 22%
    13:00 +36°C° 0 mm 2 mps 670 mmHg 21%
    14:00 +36°C° 0 mm 2 mps 670 mmHg 21%
    15:00 +36°C° 0 mm 2 mps 669 mmHg 20%
    16:00 +35°C° 0 mm 1 mps 669 mmHg 20%
    17:00 +33°C° 0 mm 1 mps 669 mmHg 23%
    18:00 +31°C° 0 mm 1 mps 669 mmHg 26%
    19:00 +29°C° 0 mm 1 mps 669 mmHg 28%
    20:00 +28°C° 0 mm 1 mps 669 mmHg 30%
    21:00 +26°C° 0 mm 0 mps 669 mmHg 31%
    22:00 +25°C° 0 mm 0 mps 669 mmHg 33%
    23:00 +24°C° 0 mm 0 mps 669 mmHg 34%

    Tomorrow, 23 September, Sunday

    Time Temperature Precipitation Wind Pressure Humidity
    00:00 +24°C° 0 mm 0 mps 669 mmHg 35%
    01:00 +23°C° 0 mm 0 mps 668 mmHg 35%
    02:00 +25°C° 0 mm 1 mps 668 mmHg 37%
    03:00 +24°C° 0 mm 1 mps 668 mmHg 38%
    04:00 +24°C° 0 mm 1 mps 668 mmHg 39%
    05:00 +25°C° 0 mm 1 mps 668 mmHg 37%
    06:00 +26°C° 0 mm 1 mps 669 mmHg 35%
    07:00 +27°C° 0 mm 1 mps 670 mmHg 33%
    08:00 +31°C° 0 mm 1 mps 671 mmHg 28%
    09:00 +34°C° 0 mm 1 mps 672 mmHg 23%
    10:00 +39°C° 0 mm 2 mps 672 mmHg 18%
    11:00 +38°C° 0 mm 2 mps 671 mmHg 18%
    12:00 +37°C° 0 mm 2 mps 671 mmHg 19%
    13:00 +37°C° 0 mm 2 mps 670 mmHg 19%
    14:00 +36°C° 0 mm 2 mps 669 mmHg 20%
    15:00 +36°C° 0 mm 2 mps 669 mmHg 20%
    16:00 +36°C° 0 mm 2 mps 669 mmHg 21%
    17:00 +34°C° 0 mm 2 mps 669 mmHg 25%
    18:00 +31°C° 0 mm 2 mps 669 mmHg 29%
    19:00 +29°C° 0 mm 2 mps 669 mmHg 33%
    20:00 +28°C° 0 mm 1 mps 669 mmHg 36%
    21:00 +27°C° 0 mm 1 mps 669 mmHg 40%
    22:00 +26°C° 0 mm 1 mps 669 mmHg 43%
    23:00 +26°C° 0 mm 1 mps 669 mmHg 44%

    Day after tomorrow, 24 September, Monday

    Time Temperature Precipitation Wind Pressure Humidity
    00:00 +25°C° 0 mm 1 mps 668 mmHg 45%
    01:00 +25°C° 0 mm 1 mps 668 mmHg 47%
    02:00 +25°C° 0 mm 1 mps 668 mmHg 48%
    03:00 +24°C° 0 mm 1 mps 668 mmHg 49%
    04:00 +24°C° 0 mm 1 mps 668 mmHg 50%
    05:00 +25°C° 0 mm 2 mps 668 mmHg 48%
    06:00 +26°C° 0 mm 2 mps 669 mmHg 46%
    07:00 +27°C° 0 mm 3 mps 670 mmHg 43%
    08:00 +30°C° 0 mm 3 mps 671 mmHg 39%
    09:00 +32°C° 0 mm 2 mps 671 mmHg 34%
    10:00 +36°C° 0 mm 2 mps 672 mmHg 29%
    11:00 +37°C° 0 mm 2 mps 671 mmHg 26%
    12:00 +37°C° 0 mm 2 mps 670 mmHg 24%
    13:00 +37°C° 0 mm 1 mps 669 mmHg 21%
    14:00 +37°C° 0 mm 2 mps 669 mmHg 22%
    15:00 +36°C° 0 mm 2 mps 669 mmHg 23%
    16:00 +36°C° 0 mm 2 mps 668 mmHg 24%
    17:00 +34°C° 0.1 mm 2 mps 669 mmHg 27%
    18:00 +31°C° 0.1 mm 2 mps 669 mmHg 31%
    19:00 +30°C° 0.1 mm 2 mps 669 mmHg 34%
    20:00 +29°C° 0 mm 2 mps 669 mmHg 37%
    21:00 +29°C° 0 mm 1 mps 670 mmHg 39%
    22:00 +28°C° 0 mm 1 mps 670 mmHg 41%
    23:00 +27°C° 0 mm 1 mps 670 mmHg 43%

    25 September, Tuesday

    Time Temperature Precipitation Wind Pressure Humidity
    00:00 +27°C° 0 mm 2 mps 669 mmHg 46%
    01:00 +26°C° 0 mm 2 mps 669 mmHg 49%
    02:00 +25°C° 0 mm 2 mps 669 mmHg 53%
    03:00 +24°C° 0 mm 2 mps 668 mmHg 58%
    04:00 +24°C° 0 mm 2 mps 668 mmHg 62%
    05:00 +24°C° 0 mm 2 mps 669 mmHg 61%
    06:00 +25°C° 0 mm 2 mps 670 mmHg 59%
    07:00 +26°C° 0 mm 2 mps 670 mmHg 57%
    08:00 +29°C° 0 mm 2 mps 671 mmHg 48%
    09:00 +32°C° 0 mm 2 mps 671 mmHg 39%
    10:00 +37°C° 0 mm 2 mps 672 mmHg 30%
    11:00 +37°C° 0 mm 2 mps 671 mmHg 28%
    12:00 +36°C° 0 mm 1 mps 670 mmHg 26%
    13:00 +36°C° 0 mm 1 mps 669 mmHg 24%
    14:00 +35°C° 0 mm 1 mps 669 mmHg 24%
    15:00 +35°C° 0 mm 1 mps 669 mmHg 25%
    16:00 +35°C° 0 mm 1 mps 668 mmHg 25%
    17:00 +33°C° 0.1 mm 1 mps 669 mmHg 29%
    18:00 +31°C° 0.1 mm 1 mps 669 mmHg 33%
    19:00 +29°C° 0.1 mm 1 mps 669 mmHg 37%
    20:00 +29°C° 0.1 mm 1 mps 669 mmHg 40%
    21:00 +28°C° 0.1 mm 1 mps 670 mmHg 43%
    22:00 +28°C° 0.1 mm 1 mps 670 mmHg 46%
    23:00 +27°C° 0.2 mm 1 mps 669 mmHg 51%

    26 September, Wednesday

    Time Temperature Precipitation Wind Pressure Humidity
    00:00 +26°C° 0.2 mm 2 mps 669 mmHg 56%
    01:00 +25°C° 0.2 mm 2 mps 669 mmHg 61%
    02:00 +24°C° 0 mm 2 mps 668 mmHg 65%
    03:00 +24°C° 0 mm 2 mps 668 mmHg 69%
    04:00 +23°C° 0 mm 2 mps 668 mmHg 73%
    05:00 +24°C° 0 mm 2 mps 669 mmHg 70%
    06:00 +25°C° 0 mm 2 mps 670 mmHg 68%
    07:00 +26°C° 0 mm 3 mps 670 mmHg 65%
    08:00 +29°C° 0 mm 3 mps 671 mmHg 54%
    09:00 +32°C° 0 mm 2 mps 672 mmHg 44%
    10:00 +36°C° 0 mm 2 mps 672 mmHg 33%
    11:00 +37°C° 0 mm 2 mps 671 mmHg 30%
    12:00 +38°C° 0 mm 2 mps 670 mmHg 26%
    13:00 +39°C° 0 mm 1 mps 670 mmHg 23%
    14:00 +37°C° 0 mm 1 mps 669 mmHg 25%
    15:00 +35°C° 0 mm 1 mps 669 mmHg 27%
    16:00 +34°C° 0 mm 1 mps 668 mmHg 28%
    17:00 +32°C° 0 mm 1 mps 668 mmHg 33%
    18:00 +31°C° 0 mm 1 mps 669 mmHg 37%
    19:00 +29°C° 0 mm 1 mps 669 mmHg 41%
    20:00 +28°C° 0.1 mm 1 mps 669 mmHg 46%
    21:00 +27°C° 0.1 mm 2 mps 669 mmHg 50%
    22:00 +26°C° 0.1 mm 2 mps 670 mmHg 55%
    23:00 +25°C° 0.1 mm 2 mps 669 mmHg 61%

    27 September, Thursday

    Time Temperature Precipitation Wind Pressure Humidity
    00:00 +25°C° 0.1 mm 2 mps 669 mmHg 67%
    01:00 +24°C° 0.1 mm 3 mps 669 mmHg 73%
    02:00 +23°C° 0 mm 2 mps 668 mmHg 76%
    03:00 +23°C° 0 mm 2 mps 668 mmHg 79%
    04:00 +21°C° 0 mm 2 mps 668 mmHg 82%
    05:00 +23°C° 0 mm 2 mps 669 mmHg 76%
    06:00 +24°C° 0 mm 2 mps 669 mmHg 70%
    07:00 +25°C° 0 mm 2 mps 670 mmHg 64%
    08:00 +29°C° 0 mm 2 mps 671 mmHg 53%
    09:00 +32°C° 0 mm 2 mps 671 mmHg 41%
    10:00 +37°C° 0 mm 2 mps 672 mmHg 30%
    11:00 +38°C° 0 mm 2 mps 671 mmHg 27%
    12:00 +39°C° 0 mm 2 mps 670 mmHg 24%
    13:00 +40°C° 0 mm 1 mps 670 mmHg 22%
    14:00 +37°C° 0.5 mm 2 mps 669 mmHg 29%
    15:00 +35°C° 0.5 mm 2 mps 668 mmHg 36%
    16:00 +31°C° 0.5 mm 3 mps 667 mmHg 44%
    17:00 +30°C° 0.5 mm 3 mps 668 mmHg 48%
    18:00 +28°C° 0.5 mm 2 mps 668 mmHg 53%
    19:00 +27°C° 0.5 mm 2 mps 668 mmHg 58%
    20:00 +26°C° 0.1 mm 2 mps 669 mmHg 60%
    21:00 +25°C° 0.1 mm 2 mps 669 mmHg 63%
    22:00 +24°C° 0.1 mm 1 mps 669 mmHg 65%
    23:00 +24°C° 0.1 mm 1 mps 668 mmHg 67%
    Show more